Regional Weather Roundup
Issued by NWS Mt. Holly, NJ

Home | Current Version | Previous Version | Text Only | Print | Product List | Glossary On
Versions: 1 2 3 4 5 6 7 8 9 10 11 12 13 14 15 16 17 18 19 20 21 22 23 24 25 26 27 28 29 30 31 32 33 34 35 36 37 38 39 40 41 42 43 44 45 46 47 48 49 50
000
ASUS41 KPHI 300911
RWRPHI

REGIONAL WEATHER ROUNDUP
NATIONAL WEATHER SERVICE MOUNT HOLLY NJ
500 AM EDT SAT MAY 30 2015

NOTE:  "FAIR" INDICATES FEW OR NO CLOUDS BELOW 12,000 FEET WITH NO
SIGNIFICANT WEATHER AND/OR OBSTRUCTIONS TO VISIBILITY.

 * = STATION DOES NOT REPORT PRECIPITATION (E.G. RAIN, SNOW, ETC.)
        OR FOG.

NJZ015>026-301000-
SOUTHERN NEW JERSEY

CITY           SKY/WX    TMP DP  RH WIND       PRES   REMARKS
POMONA         CLOUDY    67  65  93 S7        30.21S
RIO GRANDE*    CLOUDY    64  61  88 S6        30.22S VSB 3/4
MILLVILLE      FOG       64  63  96 CALM      30.21S VSB 1
WRIGHTSTOWN    PTCLDY    63  63 100 S5        30.18S
MOUNT HOLLY    PTCLDY    62  61  96 CALM      30.21R
TRENTON        CLEAR     65  63  93 S6        30.19S

$$
NJZ001>014-301000-
NORTHERN NEW JERSEY

CITY           SKY/WX    TMP DP  RH WIND       PRES   REMARKS
SUSSEX         MOCLDY    61  57  87 CALM      30.20S
ANDOVER*         N/A     65  61  87 CALM      30.20R
MORRISTOWN     CLEAR     59  55  88 CALM      30.20S
NEWARK         MOCLDY    67  63  87 S5        30.20R
TETERBORO      CLEAR     66  61  84 S3        30.18S
CALDWELL       CLEAR     62  58  86 CALM      30.20S
SOMERVILLE     CLEAR     60  56  86 NW3       30.18S
ALLAIRE*       CLEAR     63  57  82 CALM      30.21S
TOMS RIVER*    MOCLDY   N/A N/A N/A SE3       30.21S

$$
PAZ043-044-047-054-055-060>062-066>071-301000-
EASTERN PENNSYLVANIA

CITY           SKY/WX    TMP DP  RH WIND       PRES   REMARKS
PHILADELPHIA   PTCLDY    69  65  86 S5        30.20S
NORTH PHILA    CLEAR     68  62  81 S3        30.21S
BLUE BELL      CLEAR     68  64  88 CALM      30.19S
DOYLESTOWN     CLEAR     65  32  29 S5        30.19S
QUAKERTOWN*    CLEAR     64  64 100 SW3       30.20S
POTTSTOWN      PTCLDY    65  64  97 CALM      30.21R
LANCASTER      MOCLDY    67  65  93 CALM      30.18R
COATESVILLE    CLOUDY    64  64 100 S3        30.20S FOG
READING        MOCLDY    68  64  87 CALM      30.17S
ALLENTOWN      PTCLDY    69  63  81 S7        30.18R
MOUNT POCONO   CLOUDY    66  63  90 SW9       30.21S
HAZLETON       CLOUDY    68  64  88 S6        30.22S
WILKES BARRE   PTCLDY    68  63  84 CALM      30.16S

$$
DEZALL-MDZ008-012-015-019-020-301000-
DELAWARE AND EASTERN MARYLAND

CITY           SKY/WX    TMP DP  RH WIND       PRES   REMARKS
WILMINGTON     CLEAR     67  64  90 S3        30.20S
DOVER          CLEAR     66  66 100 S6        30.17S
GEORGETOWN     MOCLDY    67  66  97 S7        30.21S
EASTON         MOCLDY    69  69 100 S5        30.23R
PATUXENT       PTCLDY    69  67  93 S5        30.19R
OCEAN CITY     CLEAR     68  66  93 SW6       30.21S
WALLOPS ISLAND PTCLDY    67  67 100 S7        30.21S
CAMBRIDGE      CLOUDY    66  63  88 CALM      30.19S
SALISBURY      FOG       63  62  97 CALM      30.21R VSB 1/2

$$
PAZ001-021-NYZ056-072-MDZ011-DCZ001-301000-
OTHER NEARBY LOCATIONS

CITY           SKY/WX    TMP DP  RH WIND       PRES   REMARKS
HARRISBURG     PTCLDY    71  64  78 S9        30.15S
STATE COLLEGE  PTCLDY    67  65  91 SW6       30.14S
WILLIAMSPORT   MOCLDY    72  65  78 VRB3      30.11S
BINGHAMTON     MOCLDY    67  63  87 S10       30.14F
NEW YORK CITY  CLEAR     68  62  81 VRB3      30.22S
BALTIMORE      MOCLDY    70  66  87 CALM      30.18R
WASHINGTON DC  PTCLDY    72  67  84 S9        30.19R

$$


USA.gov is the U.S. government's official web portal to all federal, state and local government web resources and services.